When you browse on this site, cookies collect data to enhance your experience and personalize the content and advertising you see.
Visit our Privacy Policy to learn more. By continuing to use the site, you agree to this use of cookies and data.
  • Em Portugal
  • Lista de países
  • Para 7 dias
  • Temperatura da água
  • Mapas de satélite
  • Mapa do tempo
  • Widgets de tempo
  • user-avatar
    Iniciar Sessão

    Previsão horária em Chizhovka

    Hoje, 19 Junho, Quarta-feira

    Tempo Temperatura Precipitação Vento Pressão Humidade
    00:00 +17°C° 0 mm 2 m/s 752 mmHg 89%
    01:00 +16°C° 0 mm 2 m/s 752 mmHg 88%
    02:00 +16°C° 0 mm 2 m/s 752 mmHg 88%
    03:00 +16°C° 0 mm 2 m/s 752 mmHg 87%
    04:00 +16°C° 0 mm 2 m/s 752 mmHg 86%
    05:00 +16°C° 0 mm 2 m/s 752 mmHg 86%
    06:00 +18°C° 0 mm 2 m/s 752 mmHg 79%
    07:00 +19°C° 0 mm 2 m/s 752 mmHg 73%
    08:00 +23°C° 0 mm 2 m/s 752 mmHg 68%
    09:00 +24°C° 0 mm 2 m/s 752 mmHg 64%
    10:00 +25°C° 0 mm 2 m/s 752 mmHg 60%
    11:00 +26°C° 0 mm 2 m/s 752 mmHg 56%
    12:00 +27°C° 0 mm 2 m/s 752 mmHg 54%
    13:00 +27°C° 0 mm 2 m/s 752 mmHg 52%
    14:00 +28°C° 0 mm 2 m/s 752 mmHg 50%
    15:00 +27°C° 0 mm 3 m/s 751 mmHg 53%
    16:00 +27°C° 0 mm 3 m/s 751 mmHg 55%
    17:00 +27°C° 0 mm 3 m/s 751 mmHg 57%
    18:00 +25°C° 0 mm 2 m/s 751 mmHg 62%
    19:00 +23°C° 0 mm 2 m/s 751 mmHg 66%
    20:00 +21°C° 0 mm 2 m/s 751 mmHg 71%
    21:00 +20°C° 0 mm 2 m/s 751 mmHg 74%
    22:00 +19°C° 0 mm 2 m/s 751 mmHg 76%
    23:00 +19°C° 0 mm 1 m/s 751 mmHg 78%

    Amanhã, 20 Junho, Quinta-feira

    Tempo Temperatura Precipitação Vento Pressão Humidade
    00:00 +19°C° 0 mm 1 m/s 751 mmHg 79%
    01:00 +18°C° 0 mm 2 m/s 751 mmHg 80%
    02:00 +17°C° 0 mm 2 m/s 751 mmHg 81%
    03:00 +17°C° 0 mm 2 m/s 751 mmHg 82%
    04:00 +17°C° 0 mm 2 m/s 751 mmHg 83%
    05:00 +17°C° 0 mm 2 m/s 751 mmHg 84%
    06:00 +19°C° 0 mm 2 m/s 751 mmHg 81%
    07:00 +21°C° 0 mm 2 m/s 751 mmHg 77%
    08:00 +24°C° 0 mm 2 m/s 751 mmHg 73%
    09:00 +25°C° 0 mm 3 m/s 751 mmHg 68%
    10:00 +26°C° 0 mm 3 m/s 751 mmHg 62%
    11:00 +28°C° 0 mm 3 m/s 751 mmHg 56%
    12:00 +28°C° 0 mm 3 m/s 751 mmHg 56%
    13:00 +29°C° 0 mm 3 m/s 750 mmHg 55%
    14:00 +29°C° 0 mm 3 m/s 750 mmHg 54%
    15:00 +28°C° 0.4 mm 3 m/s 750 mmHg 60%
    16:00 +28°C° 0.4 mm 3 m/s 750 mmHg 66%
    17:00 +27°C° 0.4 mm 3 m/s 750 mmHg 71%
    18:00 +26°C° 0.1 mm 3 m/s 750 mmHg 76%
    19:00 +25°C° 0.1 mm 3 m/s 750 mmHg 80%
    20:00 +23°C° 0.1 mm 2 m/s 750 mmHg 84%
    21:00 +23°C° 0 mm 2 m/s 750 mmHg 85%
    22:00 +21°C° 0 mm 3 m/s 750 mmHg 87%
    23:00 +20°C° 0 mm 3 m/s 750 mmHg 88%

    Depois de amanhã, 21 Junho, Sexta-feira

    Tempo Temperatura Precipitação Vento Pressão Humidade
    00:00 +20°C° 0 mm 3 m/s 750 mmHg 89%
    01:00 +20°C° 0 mm 3 m/s 750 mmHg 90%
    02:00 +19°C° 0 mm 3 m/s 750 mmHg 91%
    03:00 +19°C° 0 mm 3 m/s 751 mmHg 90%
    04:00 +19°C° 0 mm 3 m/s 751 mmHg 90%
    05:00 +19°C° 0 mm 3 m/s 751 mmHg 90%
    06:00 +21°C° 0 mm 3 m/s 751 mmHg 84%
    07:00 +22°C° 0 mm 3 m/s 751 mmHg 77%
    08:00 +25°C° 0 mm 4 m/s 751 mmHg 71%
    09:00 +26°C° 0 mm 4 m/s 751 mmHg 66%
    10:00 +28°C° 0 mm 4 m/s 751 mmHg 61%
    11:00 +29°C° 0 mm 5 m/s 751 mmHg 56%
    12:00 +29°C° 0 mm 5 m/s 751 mmHg 55%
    13:00 +30°C° 0 mm 5 m/s 750 mmHg 54%
    14:00 +30°C° 0 mm 5 m/s 750 mmHg 54%
    15:00 +30°C° 0.1 mm 4 m/s 750 mmHg 56%
    16:00 +30°C° 0.1 mm 4 m/s 750 mmHg 59%
    17:00 +29°C° 0.1 mm 4 m/s 750 mmHg 62%
    18:00 +28°C° 0 mm 3 m/s 750 mmHg 67%
    19:00 +26°C° 0 mm 3 m/s 750 mmHg 72%
    20:00 +25°C° 0 mm 3 m/s 750 mmHg 78%
    21:00 +24°C° 0 mm 3 m/s 750 mmHg 79%
    22:00 +22°C° 0 mm 3 m/s 750 mmHg 80%
    23:00 +22°C° 0 mm 3 m/s 751 mmHg 82%

    22 Junho, Sábado

    Tempo Temperatura Precipitação Vento Pressão Humidade
    00:00 +21°C° 0 mm 3 m/s 751 mmHg 82%
    01:00 +20°C° 0 mm 3 m/s 751 mmHg 83%
    02:00 +20°C° 0 mm 2 m/s 751 mmHg 84%
    03:00 +20°C° 0 mm 2 m/s 751 mmHg 83%
    04:00 +20°C° 0 mm 2 m/s 751 mmHg 83%
    05:00 +20°C° 0 mm 2 m/s 751 mmHg 83%
    06:00 +21°C° 0 mm 2 m/s 751 mmHg 78%
    07:00 +24°C° 0 mm 2 m/s 751 mmHg 74%
    08:00 +26°C° 0 mm 2 m/s 751 mmHg 70%
    09:00 +27°C° 0 mm 3 m/s 751 mmHg 64%
    10:00 +28°C° 0 mm 3 m/s 751 mmHg 59%
    11:00 +30°C° 0 mm 3 m/s 751 mmHg 54%
    12:00 +30°C° 0.2 mm 3 m/s 751 mmHg 52%
    13:00 +30°C° 0.2 mm 3 m/s 751 mmHg 49%
    14:00 +31°C° 0.2 mm 2 m/s 751 mmHg 47%
    15:00 +30°C° 0.1 mm 2 m/s 751 mmHg 51%
    16:00 +30°C° 0.1 mm 2 m/s 751 mmHg 54%
    17:00 +30°C° 0.1 mm 1 m/s 750 mmHg 58%
    18:00 +28°C° 0.1 mm 1 m/s 751 mmHg 65%
    19:00 +26°C° 0.1 mm 2 m/s 751 mmHg 72%
    20:00 +24°C° 0.1 mm 2 m/s 751 mmHg 80%
    21:00 +24°C° 0 mm 2 m/s 751 mmHg 81%
    22:00 +23°C° 0 mm 2 m/s 751 mmHg 82%
    23:00 +21°C° 0 mm 2 m/s 751 mmHg 83%

    23 Junho, Domingo

    Tempo Temperatura Precipitação Vento Pressão Humidade
    00:00 +21°C° 0 mm 2 m/s 751 mmHg 85%
    01:00 +22°C° 0 mm 1 m/s 751 mmHg 86%
    02:00 +21°C° 0 mm 1 m/s 751 mmHg 87%
    03:00 +21°C° 0.3 mm 2 m/s 751 mmHg 84%
    04:00 +21°C° 0.3 mm 2 m/s 751 mmHg 85%
    05:00 +20°C° 0.3 mm 3 m/s 751 mmHg 86%
    06:00 +22°C° 0.1 mm 3 m/s 751 mmHg 81%
    07:00 +24°C° 0.1 mm 3 m/s 751 mmHg 75%
    08:00 +26°C° 0.1 mm 4 m/s 751 mmHg 69%
    09:00 +27°C° 0 mm 4 m/s 751 mmHg 66%
    10:00 +28°C° 0 mm 4 m/s 751 mmHg 62%
    11:00 +29°C° 0 mm 4 m/s 751 mmHg 59%
    12:00 +30°C° 0 mm 4 m/s 750 mmHg 55%
    13:00 +32°C° 0 mm 5 m/s 750 mmHg 52%
    14:00 +33°C° 0 mm 5 m/s 750 mmHg 49%
    15:00 +32°C° 0 mm 5 m/s 750 mmHg 52%
    16:00 +32°C° 0 mm 4 m/s 749 mmHg 55%
    17:00 +32°C° 0 mm 4 m/s 749 mmHg 58%
    18:00 +29°C° 0.1 mm 4 m/s 749 mmHg 63%
    19:00 +27°C° 0.1 mm 4 m/s 749 mmHg 69%
    20:00 +26°C° 0.1 mm 4 m/s 749 mmHg 74%
    21:00 +25°C° 0 mm 3 m/s 749 mmHg 76%
    22:00 +24°C° 0 mm 3 m/s 749 mmHg 78%
    23:00 +24°C° 0 mm 3 m/s 749 mmHg 80%

    24 Junho, Segunda-feira

    Tempo Temperatura Precipitação Vento Pressão Humidade
    00:00 +22°C° 0.1 mm 3 m/s 749 mmHg 82%
    01:00 +21°C° 0.1 mm 3 m/s 749 mmHg 85%
    02:00 +21°C° 0.1 mm 3 m/s 749 mmHg 88%
    03:00 +20°C° 0 mm 3 m/s 749 mmHg 88%
    04:00 +20°C° 0 mm 3 m/s 749 mmHg 87%
    05:00 +20°C° 0 mm 3 m/s 749 mmHg 87%
    06:00 +22°C° 0 mm 3 m/s 749 mmHg 81%
    07:00 +25°C° 0 mm 3 m/s 749 mmHg 76%
    08:00 +26°C° 0 mm 3 m/s 749 mmHg 70%
    09:00 +28°C° 0 mm 3 m/s 749 mmHg 64%
    10:00 +29°C° 0 mm 3 m/s 749 mmHg 58%
    11:00 +32°C° 0 mm 4 m/s 749 mmHg 52%
    12:00 +32°C° 0 mm 4 m/s 749 mmHg 51%
    13:00 +32°C° 0 mm 4 m/s 749 mmHg 50%
    14:00 +33°C° 0 mm 4 m/s 749 mmHg 48%
    15:00 +30°C° 0.9 mm 4 m/s 749 mmHg 57%
    16:00 +28°C° 0.9 mm 4 m/s 749 mmHg 65%
    17:00 +27°C° 0.9 mm 4 m/s 748 mmHg 73%
    18:00 +25°C° 0.7 mm 3 m/s 749 mmHg 75%
    19:00 +23°C° 0.7 mm 2 m/s 749 mmHg 77%
    20:00 +22°C° 0.7 mm 1 m/s 749 mmHg 79%
    21:00 +21°C° 0.2 mm 1 m/s 749 mmHg 81%
    22:00 +21°C° 0.2 mm 1 m/s 750 mmHg 84%
    23:00 +18°C° 0.2 mm 0 m/s 750 mmHg 86%
    Mostrar mais